{"data":{"norad_id":65595,"intl_designator":"2025-207D","name":"STARLINK-35261","alt_names":[],"object_type":"PAYLOAD","status":"ACTIVE","operator":null,"country":"US","launch_date":"2025-09-13","launch_site_code":"AFWTR","launch_vehicle":null,"mission":null,"orbit_class":"UNKNOWN","rcs_meters":null,"size_class":null,"mass_kg":null,"dimensions":null,"purposes":["comms"],"wikipedia_slug":null,"has_3d_model":false,"image_url":null,"decayed_at":null,"tle_current":{"epoch":"2026-05-25T04:11:35.681856Z","epoch_age_seconds":53786,"freshness":"FRESH","line1":"1 65595U 25207D   26145.17471854  .00000163  00000+0  15339-4 0  9995","line2":"2 65595  97.4508 213.7388 0001248 177.9310 182.1923 15.05647596 39770","mean_motion":15.05647596,"eccentricity":0.0001248,"inclination_deg":97.4508,"raan_deg":213.7388,"arg_perigee_deg":177.931,"mean_anomaly_deg":182.1923,"bstar":1.5339e-5,"rev_number":3977,"period_min":95.639909619329,"perigee_km":548.65395667068,"apogee_km":550.38309949049,"semimajor_km":6927.6555280806,"source":"CELESTRAK","updated_at":"2026-05-25T13:38:20.852314Z"}}}